This demonstration page uses our WeatherBlox Daily Observations layout. Learn more.

Left ArrowRight Arrow

41.12389, -100.76542

Hourly Observations for January 30, 2019

Temp ( °F °C ) Dew Point ( °F °C ) Humidity (%) Winds ( mph kmh ) Pressure ( in mb ) Visibility ( mi km ) Precip ( " mm )
12:53 am 00:53 Clear 2 -16.7 -7 -21.7 65 65 N 5 7 30.35 1028 10 16 0.00 0.00
1:53 am 01:53 Mostly Clear 2 -16.7 -5 -20.6 72 72 Calm 30.32 1027 10 16 0.00 0.00
2:53 am 02:53 Cloudy 3 -16.1 -6 -21.1 66 66 Calm 30.31 1027 10 16 0.00 0.00
3:53 am 03:53 Cloudy 4 -15.6 -5 -20.6 66 66 Calm 30.27 1025 10 16 0.00 0.00
4:53 am 04:53 Clear 5 -15 -4 -20 66 66 SE 6 9 30.24 1024 10 16 0.00 0.00
5:53 am 05:53 Mostly Cloudy 6 -14.4 -3 -19.4 66 66 S 5 7 30.24 1024 10 16 0.00 0.00
6:53 am 06:53 Clear 6 -14.4 -3 -19.4 66 66 S 5 7 30.24 1024 10 16 0.00 0.00
7:24 am 07:24 Cloudy 6 -14.4 -4 -20 63 63 SSW 7 11 30.35 1028 10 16 0.00 0.00
7:33 am 07:33 Cloudy 6 -14.4 -4 -20 63 63 S 8 13 30.35 1028 10 16 0.00 0.00
9:53 am 09:53 Sunny 9 -12.8 -2 -18.9 61 61 SSW 13 20 30.22 1023 10 16 0.00 0.00
10:17 am 10:17 Mostly Cloudy 11 -11.7 0 -17.8 61 61 S 14 22 30.29 1026 10 16 0.00 0.00
10:53 am 10:53 Cloudy 13 -10.6 3 -16.1 64 64 SSW 13 20 30.22 1023 10 16 0.00 0.00
11:20 am 11:20 Partly Cloudy 16 -8.9 4 -15.6 59 59 SSW 16 26 30.26 1025 10 16 0.00 0.00
11:42 am 11:42 Mostly Cloudy 17 -8.3 4 -15.6 56 56 SSW 16 26 30.23 1024 10 16 0.00 0.00
11:53 am 11:53 Cloudy 17 -8.3 5 -15 59 59 SSW 14 22 30.18 1022 10 16 0.00 0.00
12:53 pm 12:53 Cloudy 20 -6.7 7 -13.9 57 57 SSW 16 26 30.14 1021 10 16 0.00 0.00
1:53 pm 13:53 Mostly Cloudy 24 -4.4 10 -12.2 55 55 S 14 22 30.09 1019 10 16 0.00 0.00
2:04 pm 14:04 Partly Cloudy 24 -4.4 10 -12.2 55 55 SW 13 20 30.10 1019 10 16 0.00 0.00
2:53 pm 14:53 Sunny 26 -3.3 12 -11.1 55 55 S 14 22 30.07 1018 10 16 0.00 0.00
3:53 pm 15:53 Sunny 26 -3.3 13 -10.6 57 57 SSW 10 17 30.06 1018 10 16 0.00 0.00
4:53 pm 16:53 Sunny 26 -3.3 14 -10 60 60 S 7 11 30.05 1018 10 16 0.00 0.00
5:53 pm 17:53 Sunny 24 -4.4 13 -10.6 62 62 SSE 7 11 30.03 1017 10 16 0.00 0.00
6:53 pm 18:53 Clear 24 -4.4 14 -10 65 65 SSE 8 13 30.03 1017 10 16 0.00 0.00
7:53 pm 19:53 Clear 23 -5 15 -9.4 72 72 SSE 8 13 30.03 1017 10 16 0.00 0.00
8:53 pm 20:53 Clear 23 -5 15 -9.4 72 72 SE 10 17 30.02 1017 10 16 0.00 0.00
9:53 pm 21:53 Mostly Cloudy 21 -6.1 15 -9.4 78 78 SSE 9 15 30.02 1017 10 16 0.00 0.00
10:53 pm 22:53 Clear 20 -6.7 15 -9.4 81 81 SSE 7 11 30.02 1017 10 16 0.00 0.00
11:53 pm 23:53 Cloudy 20 -6.7 14 -10 78 78 SSE 6 9 30.02 1017 10 16 0.00 0.00

Powered by AerisWeather